Погода в Малых Яушах

Россия / Чувашская Республика     55°36′15″N   47°05′56″E
темп.,
°C
ветер,
м/с
пор.,
м/с
влажн.,
%
обл.,
%
осадки,
мм/ч
давл.,
гПа
погр.,
м
23 апреля, пт
пт2300:00+5ююз228723 0.0 102319
03:00+4ю22865 0.0 102417
06:00+5ю23855 0.0 102458
09:00+11ю34625 0.0 1024641
12:00+14ююв234996 0.1 10221633
15:00+14вюв4554100 0.1 1021669
18:00+12юв376897 0.0 1020188
21:00+10юв4976100 0.0 1020225
24 апреля, сб
сб2400:00+9юв3782100 0.1 1018151
03:00+7вюв3486100 0.1 101759
06:00+7в3684100 0.0 1015172
09:00+10вюв4570100 0.0 1013497
12:00+12вюв4561100 0.0 10111211
15:00+13вюв555874 0.1 10091077
18:00+11вюв6117499 0.1 1007636
21:00+9юв5987100 0.6 1005367
25 апреля, вс
вс2500:00+6зюз61190100 2.9 1004533
03:00+5зюз61083100 3.0 10051141
06:00+5юз6107699 0.0 10051007
09:00+6юз896553 0.2 10061279
12:00+5зюз71176100 0.8 10081138
15:00+7зюз6116370 2.0 10091603
18:00+7зюз7126196 0.3 10111084
21:00+3зюз511755 0.3 1013371
26 апреля, пн
пн2600:00+2юз512805 0.0 1014349
03:00+3ююз4127696 0.0 1014397
06:00+3ююз5127566 0.0 1014708
09:00+6зюз8117297 0.1 10141316
12:00+8юз785582 0.1 10141733
15:00+10юз5942100 0.1 10132265
18:00+9юз475682 0.0 1012257
21:00+4ююз3477100 0.1 101264
27 апреля, вт
вт2700:00+4юз2282100 0.0 101116
03:00+4ю118179 0.0 101010
06:00+4сз1282100 0.1 100899
09:00+8юв476773 0.3 1006826
12:00+11ю7946100 0.6 10032167
15:00+8ююз71072100 1.4 10021215
18:00+4з71284100 0.1 1005949
21:00+2зюз49882 0.2 1006233